• In Germany
  • List of Countries
  • For 7 days
  • Water Temperature
  • Satellite Maps
  • Weather Map
  • Weather Widgets
  • user-avatar
    Login

    Hourly Weather Bulyk

    Today, 18 August, Saturday

    Time Temperature Precipitation Wind Pressure Humidity
    00:00 +11°C° 0 mm 1 mps 649 mmHg 71%
    01:00 +10°C° 0 mm 1 mps 649 mmHg 72%
    02:00 +10°C° 0 mm 1 mps 648 mmHg 73%
    03:00 +9°C° 0 mm 1 mps 648 mmHg 74%
    04:00 +9°C° 0 mm 1 mps 648 mmHg 74%
    05:00 +11°C° 0 mm 1 mps 648 mmHg 70%
    06:00 +11°C° 0 mm 0 mps 649 mmHg 66%
    07:00 +13°C° 0 mm 0 mps 650 mmHg 60%
    08:00 +16°C° 0 mm 1 mps 650 mmHg 55%
    09:00 +19°C° 0 mm 1 mps 650 mmHg 51%
    10:00 +21°C° 0 mm 1 mps 650 mmHg 46%
    11:00 +21°C° 0 mm 2 mps 650 mmHg 44%
    12:00 +23°C° 0 mm 2 mps 650 mmHg 42%
    13:00 +24°C° 0 mm 2 mps 650 mmHg 41%
    14:00 +24°C° 0 mm 2 mps 649 mmHg 41%
    15:00 +24°C° 0 mm 2 mps 649 mmHg 42%
    16:00 +25°C° 0 mm 2 mps 649 mmHg 42%
    17:00 +22°C° 0.3 mm 1 mps 648 mmHg 52%
    18:00 +20°C° 0.3 mm 1 mps 647 mmHg 63%
    19:00 +16°C° 0.3 mm 1 mps 647 mmHg 73%
    20:00 +15°C° 1.2 mm 2 mps 647 mmHg 78%
    21:00 +14°C° 1.2 mm 2 mps 647 mmHg 83%
    22:00 +13°C° 1.2 mm 2 mps 647 mmHg 88%
    23:00 +13°C° 0.8 mm 2 mps 647 mmHg 89%

    Tomorrow, 19 August, Sunday

    Time Temperature Precipitation Wind Pressure Humidity
    00:00 +12°C° 0.8 mm 2 mps 647 mmHg 89%
    01:00 +11°C° 0.8 mm 3 mps 648 mmHg 90%
    02:00 +11°C° 0.3 mm 3 mps 648 mmHg 91%
    03:00 +11°C° 0.3 mm 3 mps 648 mmHg 91%
    04:00 +11°C° 0.3 mm 3 mps 649 mmHg 92%
    05:00 +11°C° 0.5 mm 3 mps 649 mmHg 92%
    06:00 +11°C° 0.5 mm 3 mps 650 mmHg 92%
    07:00 +12°C° 0.5 mm 2 mps 650 mmHg 92%
    08:00 +12°C° 0.2 mm 3 mps 651 mmHg 88%
    09:00 +13°C° 0.2 mm 3 mps 652 mmHg 84%
    10:00 +14°C° 0.2 mm 3 mps 652 mmHg 80%
    11:00 +16°C° 0 mm 3 mps 653 mmHg 71%
    12:00 +17°C° 0 mm 3 mps 653 mmHg 62%
    13:00 +19°C° 0 mm 3 mps 653 mmHg 52%
    14:00 +19°C° 0 mm 3 mps 653 mmHg 51%
    15:00 +19°C° 0 mm 3 mps 653 mmHg 51%
    16:00 +19°C° 0 mm 3 mps 653 mmHg 50%
    17:00 +18°C° 0 mm 3 mps 653 mmHg 57%
    18:00 +16°C° 0 mm 2 mps 653 mmHg 64%
    19:00 +14°C° 0 mm 2 mps 652 mmHg 71%
    20:00 +13°C° 0 mm 2 mps 653 mmHg 75%
    21:00 +12°C° 0 mm 1 mps 653 mmHg 79%
    22:00 +11°C° 0 mm 1 mps 653 mmHg 83%
    23:00 +10°C° 0 mm 1 mps 653 mmHg 84%

    Day after tomorrow, 20 August, Monday

    Time Temperature Precipitation Wind Pressure Humidity
    00:00 +10°C° 0 mm 1 mps 653 mmHg 86%
    01:00 +10°C° 0 mm 1 mps 653 mmHg 87%
    02:00 +10°C° 0 mm 1 mps 653 mmHg 88%
    03:00 +9°C° 0 mm 1 mps 653 mmHg 88%
    04:00 +9°C° 0 mm 1 mps 653 mmHg 89%
    05:00 +11°C° 0 mm 1 mps 653 mmHg 84%
    06:00 +12°C° 0 mm 1 mps 654 mmHg 79%
    07:00 +14°C° 0 mm 1 mps 654 mmHg 73%
    08:00 +16°C° 0 mm 1 mps 655 mmHg 65%
    09:00 +19°C° 0 mm 1 mps 655 mmHg 56%
    10:00 +21°C° 0 mm 1 mps 656 mmHg 48%
    11:00 +22°C° 0 mm 1 mps 655 mmHg 45%
    12:00 +23°C° 0 mm 1 mps 655 mmHg 42%
    13:00 +24°C° 0 mm 1 mps 655 mmHg 40%
    14:00 +24°C° 0 mm 1 mps 655 mmHg 39%
    15:00 +24°C° 0 mm 1 mps 654 mmHg 39%
    16:00 +24°C° 0 mm 1 mps 654 mmHg 39%
    17:00 +21°C° 0 mm 1 mps 653 mmHg 48%
    18:00 +19°C° 0 mm 1 mps 653 mmHg 57%
    19:00 +16°C° 0 mm 1 mps 652 mmHg 66%
    20:00 +15°C° 0 mm 1 mps 652 mmHg 70%
    21:00 +13°C° 0 mm 1 mps 652 mmHg 74%
    22:00 +11°C° 0 mm 0 mps 652 mmHg 78%
    23:00 +11°C° 0 mm 0 mps 651 mmHg 79%

    21 August, Tuesday

    Time Temperature Precipitation Wind Pressure Humidity
    00:00 +12°C° 0 mm 1 mps 651 mmHg 81%
    01:00 +11°C° 0 mm 1 mps 651 mmHg 82%
    02:00 +11°C° 0 mm 1 mps 651 mmHg 82%
    03:00 +11°C° 0 mm 1 mps 650 mmHg 83%
    04:00 +10°C° 0 mm 1 mps 650 mmHg 83%
    05:00 +12°C° 0 mm 1 mps 650 mmHg 79%
    06:00 +13°C° 0 mm 1 mps 651 mmHg 74%
    07:00 +15°C° 0 mm 1 mps 651 mmHg 70%
    08:00 +18°C° 0 mm 1 mps 651 mmHg 63%
    09:00 +19°C° 0 mm 2 mps 652 mmHg 57%
    10:00 +21°C° 0 mm 2 mps 652 mmHg 50%
    11:00 +21°C° 0 mm 2 mps 652 mmHg 48%
    12:00 +22°C° 0 mm 3 mps 652 mmHg 46%
    13:00 +24°C° 0 mm 3 mps 651 mmHg 43%
    14:00 +24°C° 0 mm 3 mps 651 mmHg 44%
    15:00 +24°C° 0 mm 2 mps 651 mmHg 45%
    16:00 +24°C° 0 mm 2 mps 651 mmHg 46%
    17:00 +21°C° 0.3 mm 2 mps 650 mmHg 54%
    18:00 +19°C° 0.3 mm 1 mps 650 mmHg 63%
    19:00 +16°C° 0.3 mm 1 mps 649 mmHg 71%
    20:00 +15°C° 0.5 mm 1 mps 649 mmHg 74%
    21:00 +13°C° 0.5 mm 0 mps 649 mmHg 77%
    22:00 +12°C° 0.5 mm 0 mps 649 mmHg 80%
    23:00 +12°C° 0.1 mm 0 mps 649 mmHg 81%

    22 August, Wednesday

    Time Temperature Precipitation Wind Pressure Humidity
    00:00 +12°C° 0.1 mm 0 mps 649 mmHg 83%
    01:00 +12°C° 0.1 mm 1 mps 649 mmHg 84%
    02:00 +12°C° 0 mm 1 mps 648 mmHg 85%
    03:00 +12°C° 0 mm 1 mps 648 mmHg 86%
    04:00 +11°C° 0 mm 1 mps 648 mmHg 86%
    05:00 +12°C° 0 mm 0 mps 649 mmHg 83%
    06:00 +13°C° 0 mm 0 mps 649 mmHg 80%
    07:00 +14°C° 0 mm 0 mps 650 mmHg 76%
    08:00 +17°C° 0 mm 0 mps 650 mmHg 69%
    09:00 +21°C° 0 mm 1 mps 650 mmHg 61%
    10:00 +23°C° 0 mm 1 mps 651 mmHg 54%
    11:00 +23°C° 0 mm 1 mps 651 mmHg 51%
    12:00 +24°C° 0 mm 2 mps 650 mmHg 49%
    13:00 +25°C° 0 mm 2 mps 650 mmHg 47%
    14:00 +25°C° 0.5 mm 2 mps 650 mmHg 48%
    15:00 +24°C° 0.5 mm 2 mps 650 mmHg 50%
    16:00 +24°C° 0.5 mm 2 mps 649 mmHg 52%
    17:00 +22°C° 0.1 mm 1 mps 649 mmHg 59%
    18:00 +20°C° 0.1 mm 1 mps 649 mmHg 67%
    19:00 +18°C° 0.1 mm 1 mps 648 mmHg 75%
    20:00 +16°C° 0 mm 1 mps 648 mmHg 77%
    21:00 +15°C° 0 mm 1 mps 648 mmHg 80%
    22:00 +14°C° 0 mm 1 mps 648 mmHg 83%
    23:00 +14°C° 0 mm 1 mps 648 mmHg 84%

    23 August, Thursday

    Time Temperature Precipitation Wind Pressure Humidity
    00:00 +14°C° 0 mm 1 mps 648 mmHg 85%
    01:00 +12°C° 0 mm 0 mps 647 mmHg 86%
    02:00 +13°C° 0 mm 1 mps 647 mmHg 87%
    03:00 +13°C° 0 mm 1 mps 647 mmHg 87%
    04:00 +12°C° 0 mm 1 mps 647 mmHg 88%
    05:00 +14°C° 0 mm 1 mps 648 mmHg 84%
    06:00 +15°C° 0 mm 1 mps 648 mmHg 80%
    07:00 +15°C° 0 mm 0 mps 649 mmHg 76%
    08:00 +19°C° 0 mm 1 mps 649 mmHg 70%
    09:00 +21°C° 0 mm 1 mps 649 mmHg 63%
    10:00 +23°C° 0 mm 1 mps 650 mmHg 57%
    11:00 +23°C° 0 mm 2 mps 649 mmHg 56%
    12:00 +23°C° 0 mm 2 mps 649 mmHg 55%
    13:00 +24°C° 0 mm 2 mps 649 mmHg 53%
    14:00 +23°C° 0.7 mm 2 mps 648 mmHg 59%
    15:00 +22°C° 0.7 mm 1 mps 648 mmHg 65%
    16:00 +21°C° 0.7 mm 1 mps 647 mmHg 71%
    17:00 +20°C° 2.2 mm 1 mps 647 mmHg 77%
    18:00 +17°C° 2.2 mm 2 mps 647 mmHg 83%
    19:00 +16°C° 2.2 mm 2 mps 646 mmHg 89%
    20:00 +14°C° 2.3 mm 2 mps 646 mmHg 89%
    21:00 +12°C° 2.3 mm 3 mps 646 mmHg 90%
    22:00 +11°C° 2.3 mm 3 mps 646 mmHg 91%
    23:00 +11°C° 0.9 mm 3 mps 646 mmHg 92%
    Show more